Location: Beaurevoir
(49.9971°N, 3.3085°E)
Time: 12:26:30
(UTC+00:00)

ALOS - Pass Details

Date: 23 May 2024
Orbit: 673 x 676 km, 98.0° (Epoch: 16 June)

Event Time Altitude Azimuth Distance (km) Brightness Sun altitude
Rises 02:58:16 0° 12° (NNE) 3,040 6.7 -7.3°
Reaches altitude 10° 03:00:31 10° 10° (N) 2,121 5.7 -7.0°
Maximum altitude 03:05:07 69° 288° (WNW) 727 2.3 -6.5°
Drops below altitude 10° 03:09:41 10° 205° (SSW) 2,102 4.2 -6.0°
Enters shadow 03:10:47 - 204° (SSW) 2,553 4.6 -5.8°
